www.pogodaiklimat.ru

Погода и климат >> Архив погоды >> Мексика >> Merida


АРХИВ ПОГОДЫ в Merida

Время (UTC), дата Ветер
(напр.,м/с)
 
Видим.   Явления Облачность Т
(С)
Тd
(С)
f
(%)
Тe
(С)
Тes
(С)
Комфортность P
(гПа)
Po
(гПа)
Тmin
(С)
Tmax
(С)
R
(мм)
R24
(мм)
S
(см)
09 18.02 В 2 5000 м 5/5 600 м
[Sc]
+21.8 +19.8 88 +27 +27 душно 1018.2 1017.0
12 18.02 СВ 1 5000 м 1/1 600 м
[Cu hum]
+20.0 +19.1 95 +24 +24 комфорт 1018.7 1017.5 +19.8 +34.3
15 18.02 В 3 10 км 1/1 600 м
[Cu hum]
+25.5 +22.7 85 +34 +39 очень
душно
1020.3 1019.0
18 18.02 В 2 10 км 5/5 600 м
[Cu hum]
+31.9 +22.3 57 +41 +49 опасность
перегрева
1018.7 1017.5 +19.8 +31.9
21 18.02 В 2 10 км 9/9 600 м
[Sc diur, vesp]
+32.2 +22.4 56 +41 +42 опасность
перегрева
1015.9 1014.7
00 19.02 СВ 4 5000 м 4/4 600 м
[Cu hum]
+27.8 +21.1 67 +35 +35 очень
душно
1016.4 1015.1 +19.8 +32.5
03 19.02 ЮВ 3 5000 м ясно +25.3 +20.9 77 +32 +32 очень
душно
1018.2 1016.9
06 19.02 В 2 5000 м ясно +23.7 +21.0 85 +30 +30 очень
душно
1018.3 1017.0 +19.8 +32.5
09 19.02 В 3 5000 м ясно +22.2 +20.5 90 +29 +29 очень
душно
1017.7 1016.4
12 19.02 В 2 5000 м ясно +21.0 +19.8 93 +27 +27 душно 1019.5 1018.2 +21.0 +32.5
15 19.02 В 3 10 км 1/1 600 м
[Cu hum]
+26.3 +22.5 80 +35 +40 очень
душно
1018.8 1017.5
18 19.02 В 2 10 км 5/5 600 м
[Cu hum]
+31.4 +22.4 59 +41 +49 опасность
перегрева
1017.0 1015.8 +20.5 +32.4
21 19.02 ЮВ 2 10 км 6/5 600 м
[Cu hum Ac trans]
+32.6 +23.2 58 +43 +46 опасность
перегрева
1014.1 1012.8
00 20.02 ЮВ 3 5000 м 3/0 2000 м
[Ac trans]
+31.2 +20.3 52 +38 +38 очень
душно
1014.3 1013.0 +20.5 +34.2
03 20.02 ЮВ 3 5000 м ясно +27.0 +20.3 67 +33 +33 очень
душно
1016.3 1015.1
06 20.02 В 3 5000 м ясно +24.7 +21.4 82 +31 +31 очень
душно
1016.7 1015.4 +20.5 +34.2
09 20.02 В 3 5000 м 1/0 2000 м
[Ac trans]
+23.2 +21.2 89 +31 +31 очень
душно
1015.9 1014.7
12 20.02 ЮВ 2 5000 м ясно +22.7 +21.3 92 +30 +30 очень
душно
1016.5 1015.2 +22.7 +34.2
15 20.02 В 6 10 км 4/4 600 м
[Cu hum]
+27.2 +23.7 81 +37 +39 очень
душно
1018.2 1017.0
18 20.02 В 5 10 км 8/8 600 м
[Cu hum]
+31.6 +22.8 60 +42 +43 опасность
перегрева
1017.0 1015.8 +22.4 +32.0
21 20.02 ЮВ 4 10 км 8/5 600 м
[Cu hum Ac trans]
+28.6 +24.0 76 +40 +41 очень
душно
1015.8 1014.5 0.1
00 21.02 ЮВ 3 5000 м {морось} 4/0 2000 м
[Ac trans]
+28.4 +22.0 68 +37 +37 очень
душно
1016.1 1014.9 0.1
03 21.02 ЮВ 4 5000 м 1/0 2000 м
[Ac trans]
+26.2 +21.4 75 +33 +33 очень
душно
1017.9 1016.7
06 21.02 В 4 5000 м ясно +24.8 +22.4 87 +32 +32 очень
душно
1018.2 1017.0 +22.4 +32.0
09 21.02 ЮВ 3 5000 м ясно +23.7 +22.2 91 +31 +31 очень
душно
1017.2 1015.9
12 21.02 ЮВ 2 5000 м 3/3 600 м
[Cu hum]
+23.0 +21.8 93 +31 +31 очень
душно
1018.5 1017.3 +23.0 +32.0
15 21.02 В 5 10 км 3/3 600 м
[Cu hum]
+27.8 +23.0 75 +37 +40 очень
душно
1019.7 1018.4
18 21.02 В 3 10 км 8/8 600 м
[Cu hum]
+31.8 +22.9 59 +42 +44 опасность
перегрева
1019.0 1017.7 +22.6 +32.5
21 21.02 ЮВ 4 10 км 6/6 600 м
[Cu hum]
+34.7 +23.0 51 +45 +47 опасность
перегрева
1016.4 1015.1
00 22.02 В 4 5000 м 1/1 600 м
[Cu hum]
+32.1 +22.4 57 +42 +42 опасность
перегрева
1017.4 1016.1 +22.6 +35.8
03 22.02 В 3 5000 м ясно +27.6 +23.3 77 +37 +37 очень
душно
1019.7 1018.4
06 22.02 В 3 5000 м ясно +25.2 +22.4 84 +33 +33 очень
душно
1020.5 1019.2 +22.6 +35.8
09 22.02 В 3 5000 м ясно +23.5 +21.9 91 +30 +30 очень
душно
1019.5 1018.3
12 22.02 В 3 5000 м ясно +22.1 +21.0 93 +29 +29 очень
душно
1020.4 1019.1 +22.1 +35.8
15 22.02 В 3 10 км ясно +26.4 +21.8 76 +34 +41 очень
душно
1021.9 1020.6
18 22.02 В 2 10 км 6/6 600 м
[Cu hum]
+31.2 +23.8 65 +43 +49 опасность
перегрева
1020.2 1019.0 +21.7 +31.7
21 22.02 В 3 10 км 5/5 600 м
[Cu hum]
+34.6 +25.8 60 +50 +53 опасность
перегрева
1017.1 1015.8
00 23.02 В 3 5000 м 5/5 300 м
[Sc]
+29.8 +23.2 68 +40 +40 очень
душно
1017.8 1016.5 +21.7 +35.0
03 23.02 ЮВ 4 5000 м 3/0
[Ci fib]
+26.4 +22.3 78 +34 +34 очень
душно
1020.5 1019.3
06 23.02 В 3 5000 м 8/0 2000 м
[Ac trans]
+25.2 +22.1 83 +33 +33 очень
душно
1020.9 1019.7 +21.7 +35.0
09 23.02 В 2 5000 м 3/0 2000 м
[Ac trans]
+23.7 +21.8 89 +30 +30 очень
душно
1020.2 1018.9
12 23.02 В 3 5000 м 1/1 600 м
[Cu hum]
+22.3 +21.2 93 +29 +29 очень
душно
1020.9 1019.6 +22.3 +35.0
15 23.02 В 3 10 км 5/5 600 м
[Cu hum]
+26.4 +22.9 81 +35 +38 очень
душно
1022.0 1020.7
18 23.02 В 4 10 км 6/6 600 м
[Cu hum]
+32.7 +23.6 59 +44 +48 опасность
перегрева
1020.3 1019.1 +22.3 +32.7
21 23.02 В 3 10 км 8/8 600 м
[Cu hum]
+34.3 +24.9 58 +48 +49 опасность
перегрева
1016.6 1015.3
00 24.02 СВ 4 5000 м 6/6 600 м
[Cu med, cong]
+30.4 +22.4 62 +39 +39 очень
душно
1016.6 1015.3 +22.3 +35.3
03 24.02 ЮВ 3 5000 м 1/0
[Ci fib]
+28.2 +21.5 67 +36 +36 очень
душно
1018.6 1017.3
06 24.02 Ю 2 5000 м ясно +25.2 +22.1 83 +33 +33 очень
душно
1019.1 1017.8 +22.3 +35.3
09 24.02 ЮВ 3 5000 м ясно +23.1 +21.3 90 +31 +31 очень
душно
1017.7 1016.4
12 24.02 ЮВ 3 5000 м ясно +21.7 +20.3 92 +27 +27 душно 1017.3 1016.1 +21.7 +35.3
15 24.02 В 3 10 км 4/4 600 м
[Cu hum]
+26.8 +22.1 75 +35 +39 очень
душно
1018.7 1017.4
18 24.02 В 2 10 км 4/4 600 м
[Cu hum]
+32.7 +25.3 65 +47 +57 опасность
перегрева
1016.7 1015.4 +21.4 +32.7
21 24.02 В 3 10 км 8/8 600 м
[Cu med, cong]
+35.0 +25.1 57 +49 +50 опасность
перегрева
1013.4 1012.1
00 25.02 Ю 2 5000 м 1/0 2000 м
[Ac trans]
+32.4 +23.9 61 +44 +44 опасность
перегрева
1020.8 1011.5 +21.4 +35.0
03 25.02 ЮВ 3 5000 м ясно +28.0 +22.8 73 +37 +37 очень
душно
1015.4 1014.1

 

Местоположение метеостанции Merida (Мексика): широта 20.98 долгота -89.65 высота над уровнем моря 9 м.

В архиве по умолчанию представлена погода в Merida за последнюю неделю. Архивные данные за месяц целиком и за предыдущие месяцы, начиная с января 2011 года, Вы можете получить, выбрав интересующий диапазон дат из раскрывающегося списка и нажав кнопку "Ввод!".

Внимание! Время в таблицах - всемирное. Для получения местного времени необходимо прибавить поправку, которая в Merida равна -6 ч.

Смотрите также архив погоды в соседних городах и на ближайших метеорологических станциях:

Погода в Merida 2 (Мексика) (6 км)
Погода в Progreso (Мексика) (36 км)
Погода в Valladolid (Мексика) (154 км)
Погода в Campeche (Мексика) (157 км)
Погода в Felipe Carrillo Puerto (Мексика) (231 км)
Погода в Chetumal (Мексика) (312 км)
Погода в Belize (Белиз) (409 км)
Погода в Flores (Гватемала) (452 км)
Погода в Villahermosa (Мексика) (479 км)
Погода в Cabo San Antonio (Куба) (497 км)

Пояснения к столбцам:

Ветер - указаны скорость ветра в м/с - средняя за 10 мин, порывы в срок и между сроками (в фигурных скобках) и направление, откуда дует ветер: С - северный, СВ - северо-восточный, В - восточный, ЮВ - юго-восточный, Ю - южный, ЮЗ - юго-западный, З - западный, СЗ - северо-западный.
Видимость - горизонтальная дальность видимости в метрах или километрах. При видимости от 1 до 10 км при отсутствии осадков обычно наблюдается дымка, при ухудшении видимости до 1 км и менее - туман. В сухую погоду видимость может ухудшаться дымом, пылью или мглою.
Явления - указаны атмосферные явления, наблюдавшиеся в срок или в последний час перед сроком; фигурными скобками обозначены явления, наблюдавшиеся между сроками (за 1-3 часа до срока); квадратными скобками обозначены град или гололедные отложения с указанием их диаметра в мм.
Облачность - указаны через наклонную черту общая и нижняя облачность в баллах и высота нижней границы облаков в метрах; квадратными скобками обозначены формы облаков: Ci - перистые, Cs - перисто-слоистые, Cc - перисто-кучевые, Ac - высококучевые, As - высокослоистые, Sc - слоисто-кучевые, Ns - слоисто-дождевые, Cu - кучевые, Cb - кучево-дождевые. Подробнее классификацию облаков см. в Атласе облаков (PDF).
T - Температура воздуха - температура, измеренная на высоте 2 м над землей.
Td - Температура точки росы - температура, при понижении до которой содержащийся в воздухе водяной пар достигнет насыщения.
f - Относительная влажность воздуха - влажноcть воздуха, измеренная на высоте 2 м над землей.
Te - Эффективная температура - температура, которую ощущает одетый по сезону человек в тени. Характеристика душности погоды. При расчете учитывается влияние влажности воздуха и скорости ветра на теплоощущения человека.
Tes - Эффективная температура на солнце - температура, которую ощущает человек, с поправкой на солнечный нагрев. Характеристика знойности погоды. Зависит от высоты солнца над горизонтом, облачности и скорости ветра. Ночью, в пасмурную погоду, а также при ветре 12 м/с и более поправка равна нулю.
P - Атмосферное давление - приведенное к уровню моря атмосферное давление.
Po - Атмосферное давление - измеренное на уровне метеостанции атмосферное давление.
Tmin - Минимальная температура - минимум температуры воздуха на высоте 2 м над землей.
Tmax - Максимальная температура - максимум температуры воздуха на высоте 2 м над землей.
R - Количество осадков - Количество выпавших осадков за период времени, мм. При наведении курсора мыши на число - период времени, за который выпало указанное количество осадков.
R24 - Количество осадков - Количество выпавших осадков за 24 часа, мм.
S - Снежный покров - Высота снежного покрова, см. При наведении курсора мыши на число - состояние снежного покрова и степень покрытия местности в баллах.